Flag for U.S.A. Weather past 2 weeks in Irving, Texas, U.S.A.

Now
74 °F

Passing clouds.


Feels Like: 73 °F
Forecast: 73 / 91 °F
Wind: 10 mph from South

Location: Dallas / Fort Worth International Airport

Current Time: Oct 1, 2014 at 8:16:45 AM

Latest Report: Oct 1, 2014 at 6:53 AM


Visibility: 10 mi

Pressure: 29.76 "Hg

Humidity: 88%

Dew point: 70 °F

Location of IrvingLocation

Historic Weather in Irving — Graph

°F

Irving temperature yesterday

Maximum temperature yesterday: 91 °F (at 5:53 PM)
Minimum temperature yesterday: 70 °F (at 6:53 AM)
Average temperature yesterday: 81 °F

Past Weeks' High & Low Weather Summary

 TemperatureHumidityPressure
High95 °F (Sep 17, 3:53 PM)90% (Sep 18, 7:53 AM)30.18 "Hg (Sep 18, 7:53 AM)
Low60 °F (Sep 24, 7:53 AM)19% (Sep 24, 3:53 PM)29.71 "Hg (Sep 30, 5:53 PM)
Average79 °F57%29.99 "Hg
* Reported Sep 16 6:53 AM — Oct 1 6:53 AM, Irving, Weather by CustomWeather, © 2014

Note: Actual official high and low records may vary slightly from our data, if they occured in-between our weather recording intervals... More about our weather records

Advertising

Irving weather history for previous 24 hours

 ConditionsComfort  
Time TempWeatherWind HumidityBarometerVisibility
6:53 AM
Oct 1
74 °FPassing clouds.10 mph88%29.76 "Hg10 mi
5:53 AM75 °FClear.8 mph82%29.75 "Hg10 mi
4:53 AM76 °FClear.9 mph80%29.76 "Hg10 mi
3:53 AM77 °FClear.10 mph77%29.75 "Hg10 mi
2:53 AM77 °FClear.10 mph77%29.75 "Hg10 mi
1:53 AM78 °FClear.9 mph71%29.75 "Hg10 mi
12:53 AM80 °FClear.13 mph67%29.74 "Hg10 mi
11:53 PM
Sep 30
81 °FClear.12 mph65%29.73 "Hg10 mi
10:53 PM82 °FClear.15 mph60%29.73 "Hg10 mi
9:53 PM83 °FPassing clouds.13 mph57%29.73 "Hg10 mi
8:53 PM84 °FPassing clouds.9 mph51%29.74 "Hg10 mi
7:53 PM85 °FPassing clouds.8 mph50%29.72 "Hg10 mi
6:53 PM88 °FPassing clouds.13 mph43%29.72 "Hg10 mi
5:53 PM91 °FScattered clouds.13 mph38%29.71 "Hg10 mi
4:53 PM90 °FScattered clouds.14 mph41%29.73 "Hg10 mi
3:53 PM90 °FPartly sunny.7 mph42%29.74 "Hg10 mi
2:53 PM90 °FBroken clouds.10 mph42%29.76 "Hg10 mi
1:53 PM90 °FBroken clouds.14 mph43%29.80 "Hg10 mi
12:53 PM87 °FBroken clouds.9 mph48%29.83 "Hg10 mi
11:53 AM84 °FBroken clouds.9 mph57%29.85 "Hg10 mi
10:53 AM83 °FBroken clouds.10 mph61%29.87 "Hg10 mi
9:53 AM81 °FPartly sunny.8 mph67%29.88 "Hg10 mi
8:53 AM76 °FBroken clouds.7 mph77%29.88 "Hg10 mi
Weather by CustomWeather, © 2014

See weather overviewHow to use our weather pages